Location: Namasale
(1.5000°N, 32.6167°E)
Time: 22:51:31
(UTC+00:00)

N. Korean satellite - Visible Passes

Search period start: 26 February 2021 00:00
Search period end: 08 March 2021 00:00
Orbit: 451 x 503 km, 97.2° (Epoch: 26 February)

Date Brightness Start Highest point End Pass type
(mag) Time Alt. Az. Time Alt. Az. Time Alt. Az.
26 Feb 6.8 03:09:36 10° N 03:13:01 44° W 03:16:30 10° SSW visible
27 Feb 7.2 02:42:50 10° NNE 02:46:22 58° E 02:49:57 10° S visible
28 Feb 9.3 02:17:00 10° NE 02:19:44 20° ESE 02:22:29 10° SSE visible
01 Mar 7.5 03:23:02 10° NNW 03:26:06 26° W 03:29:13 10° SW visible
02 Mar 6.4 02:55:50 10° N 02:59:25 80° W 03:03:05 10° SSW visible
03 Mar 8.3 02:29:29 10° NE 02:32:46 33° E 02:36:06 10° SSE visible
04 Mar 10.0 02:04:26 10° ENE 02:06:06 13° E 02:07:47 10° SE visible
04 Mar 8.1 03:36:44 10° NW 03:39:07 17° W 03:41:31 10° WSW visible
05 Mar 6.8 03:08:58 10° N 03:12:26 45° W 03:15:58 10° SSW visible
06 Mar 7.2 02:42:11 10° NNE 02:45:44 58° E 02:49:22 10° S visible
07 Mar 9.3 02:16:18 10° NE 02:19:03 20° E 02:21:51 10° SSE visible
